OAS309 MPTO-SKCL

Flight info

Callsign OAS309
Flight time 1h 8m
Altitude 37000
Route DANDA DCT IRATA UN420 BUSMO UW90 ASIKO ASIKO1C
Aircraft A320/M-SDE3FGHIRWY/LB1

Departure

Time 2026-04-24 19:43
Airport Tocumen International Airport (MPTO)

Arrival

Time 2026-04-24 20:51
Airport Alfonso Bonilla Aragon International Airport (SKCL)
Time Latitude Longitude Altitude Speed Heading
2026-04-24 19:33 9.06791 -79.38461 30 ft 0 kts 291°
2026-04-24 19:35 9.06786 -79.38448 31 ft 4 kts 293°
2026-04-24 19:35 9.06775 -79.38426 31 ft 3 kts 303°
2026-04-24 19:35 9.06768 -79.38415 31 ft 2 kts 329°
2026-04-24 19:36 9.06757 -79.38411 31 ft 2 kts
2026-04-24 19:36 9.06746 -79.38413 31 ft 2 kts 23°
2026-04-24 19:36 9.06736 -79.38418 31 ft 2 kts 27°
2026-04-24 19:36 9.06726 -79.38423 31 ft 2 kts 28°
2026-04-24 19:37 9.06725 -79.38423 30 ft 0 kts 28°
2026-04-24 19:39 9.06726 -79.38423 30 ft 1 kts 28°
2026-04-24 19:39 9.06809 -79.38385 30 ft 20 kts 23°
2026-04-24 19:39 9.06869 -79.38306 30 ft 13 kts 60°
2026-04-24 19:39 9.06922 -79.38239 30 ft 11 kts 48°
2026-04-24 19:40 9.06976 -79.38187 30 ft 10 kts 36°
2026-04-24 19:40 9.07034 -79.38154 30 ft 9 kts 26°
2026-04-24 19:40 9.07087 -79.38127 30 ft 8 kts 28°
2026-04-24 19:40 9.07134 -79.38099 30 ft 8 kts 30°
2026-04-24 19:41 9.07197 -79.38052 30 ft 17 kts 47°
2026-04-24 19:41 9.07174 -79.37963 30 ft 14 kts 119°
2026-04-24 19:41 9.07095 -79.37933 30 ft 13 kts 197°
2026-04-24 19:41 9.07083 -79.37939 30 ft 0 kts 206°
2026-04-24 19:42 9.07022 -79.37971 30 ft 35 kts 209°
2026-04-24 19:42 9.06572 -79.38230 30 ft 109 kts 209°
2026-04-24 19:42 9.05736 -79.38696 69 ft 160 kts 208°
2026-04-24 19:42 9.04699 -79.39275 632 ft 180 kts 208°
2026-04-24 19:43 9.03582 -79.39930 1344 ft 187 kts 209°
2026-04-24 19:43 9.02455 -79.40604 2092 ft 193 kts 208°
2026-04-24 19:43 9.01213 -79.41311 2517 ft 217 kts 208°
2026-04-24 19:43 8.99831 -79.42088 3010 ft 239 kts 208°
2026-04-24 19:44 8.98308 -79.42945 3536 ft 261 kts 208°
2026-04-24 19:44 8.96694 -79.43854 4394 ft 269 kts 209°
2026-04-24 19:44 8.95051 -79.44785 5370 ft 272 kts 209°
2026-04-24 19:44 8.93400 -79.45720 6349 ft 273 kts 209°
2026-04-24 19:45 8.91738 -79.46666 7281 ft 276 kts 209°
2026-04-24 19:45 8.89955 -79.47422 8120 ft 281 kts 194°
2026-04-24 19:45 8.87999 -79.47629 8938 ft 287 kts 178°
2026-04-24 19:45 8.86031 -79.47231 9744 ft 292 kts 162°
2026-04-24 19:46 8.84083 -79.46551 10362 ft 305 kts 162°
2026-04-24 19:46 8.82004 -79.45834 10681 ft 326 kts 162°
2026-04-24 19:46 8.79822 -79.45086 11315 ft 334 kts 163°
2026-04-24 19:46 8.77604 -79.44331 12074 ft 339 kts 163°
2026-04-24 19:47 8.75354 -79.43566 12825 ft 343 kts 163°
2026-04-24 19:47 8.73079 -79.42789 13551 ft 348 kts 163°
2026-04-24 19:47 8.70773 -79.42001 14267 ft 351 kts 162°
2026-04-24 19:47 8.68447 -79.41207 14947 ft 355 kts 162°
2026-04-24 19:48 8.66092 -79.40404 15604 ft 359 kts 162°
2026-04-24 19:48 8.63717 -79.39594 16247 ft 362 kts 162°
2026-04-24 19:48 8.58954 -79.37783 17465 ft 370 kts 154°
2026-04-24 19:49 8.54338 -79.35352 18637 ft 378 kts 153°
2026-04-24 19:49 8.49630 -79.32868 19720 ft 386 kts 153°
2026-04-24 19:50 8.43219 -79.29486 21068 ft 396 kts 153°
2026-04-24 19:50 8.40765 -79.28195 21551 ft 399 kts 153°
2026-04-24 19:51 8.35790 -79.25584 22473 ft 406 kts 153°
2026-04-24 19:51 8.33272 -79.24263 22916 ft 410 kts 153°
2026-04-24 19:52 8.28174 -79.21589 23779 ft 416 kts 153°
2026-04-24 19:52 8.25598 -79.20236 24191 ft 419 kts 153°
2026-04-24 19:52 8.23004 -79.18871 24599 ft 422 kts 153°
2026-04-24 19:52 8.20394 -79.17497 25026 ft 424 kts 153°
2026-04-24 19:53 8.17772 -79.16119 25445 ft 426 kts 153°
2026-04-24 19:53 8.15138 -79.14737 25856 ft 428 kts 153°
2026-04-24 19:53 8.09833 -79.11952 26672 ft 431 kts 153°
2026-04-24 19:54 8.07164 -79.10552 27069 ft 433 kts 153°
2026-04-24 19:54 8.04486 -79.09144 27447 ft 435 kts 153°
2026-04-24 19:54 8.01799 -79.07732 27827 ft 436 kts 153°
2026-04-24 19:54 7.99099 -79.06314 28201 ft 438 kts 153°
2026-04-24 19:55 7.97307 -79.05374 28444 ft 439 kts 153°
2026-04-24 19:55 7.93677 -79.03470 28933 ft 441 kts 153°
2026-04-24 19:55 7.90949 -79.02042 29297 ft 442 kts 153°
2026-04-24 19:55 7.88217 -79.00612 29659 ft 443 kts 153°
2026-04-24 19:56 7.85471 -78.99174 30006 ft 445 kts 153°
2026-04-24 19:56 7.82713 -78.97732 30414 ft 447 kts 153°
2026-04-24 19:56 7.79949 -78.96285 30780 ft 448 kts 153°
2026-04-24 19:56 7.77179 -78.94835 31140 ft 450 kts 153°
2026-04-24 19:57 7.74398 -78.93378 31505 ft 451 kts 153°
2026-04-24 19:57 7.71623 -78.91921 31954 ft 448 kts 153°
2026-04-24 19:57 7.68870 -78.90475 32458 ft 445 kts 153°
2026-04-24 19:57 7.66134 -78.89039 32934 ft 442 kts 153°
2026-04-24 19:58 7.63417 -78.87617 33390 ft 439 kts 153°
2026-04-24 19:58 7.60712 -78.86202 33845 ft 436 kts 153°
2026-04-24 19:58 7.58025 -78.84797 34291 ft 434 kts 153°
2026-04-24 19:58 7.55354 -78.83401 34794 ft 432 kts 153°
2026-04-24 19:59 7.52693 -78.82006 35226 ft 431 kts 153°
2026-04-24 19:59 7.50031 -78.80616 35585 ft 431 kts 153°
2026-04-24 19:59 7.47392 -78.79192 35891 ft 430 kts 152°
2026-04-24 19:59 7.44803 -78.77683 36184 ft 430 kts 150°
2026-04-24 20:00 7.42250 -78.76115 36455 ft 430 kts 149°
2026-04-24 20:00 7.39717 -78.74521 36702 ft 430 kts 149°
2026-04-24 20:00 7.37185 -78.72928 36867 ft 429 kts 149°
2026-04-24 20:01 7.32155 -78.69818 36909 ft 419 kts 150°
2026-04-24 20:01 7.27180 -78.66812 36896 ft 416 kts 150°
2026-04-24 20:02 7.23055 -78.64325 36910 ft 415 kts 150°
2026-04-24 20:02 7.17274 -78.60830 36910 ft 415 kts 150°
2026-04-24 20:03 7.12333 -78.57837 36909 ft 414 kts 150°
2026-04-24 20:03 7.07402 -78.54840 36908 ft 414 kts 150°
2026-04-24 20:04 7.02464 -78.51847 36905 ft 414 kts 150°
2026-04-24 20:04 6.97531 -78.48861 36901 ft 414 kts 150°
2026-04-24 20:05 6.92596 -78.45884 36897 ft 414 kts 150°
2026-04-24 20:05 6.87662 -78.42893 36897 ft 414 kts 150°
2026-04-24 20:06 6.82725 -78.39912 36901 ft 414 kts 150°
2026-04-24 20:06 6.77789 -78.36933 36902 ft 414 kts 150°
2026-04-24 20:07 6.73690 -78.34450 36908 ft 413 kts 150°
2026-04-24 20:07 6.67908 -78.31014 36904 ft 413 kts 150°
2026-04-24 20:08 6.62947 -78.28114 36909 ft 412 kts 150°
2026-04-24 20:08 6.57990 -78.25217 36906 ft 412 kts 150°
2026-04-24 20:09 6.53040 -78.22320 36899 ft 411 kts 150°
2026-04-24 20:09 6.48090 -78.19425 36894 ft 412 kts 150°
2026-04-24 20:10 6.43145 -78.16524 36906 ft 411 kts 150°
2026-04-24 20:10 6.38208 -78.13598 36892 ft 412 kts 150°
2026-04-24 20:11 6.33284 -78.10719 36901 ft 412 kts 150°
2026-04-24 20:11 6.28315 -78.07852 36901 ft 411 kts 150°
2026-04-24 20:12 6.23366 -78.04966 36893 ft 411 kts 150°
2026-04-24 20:12 6.18428 -78.02071 36885 ft 410 kts 150°
2026-04-24 20:13 6.13497 -77.99188 36887 ft 410 kts 150°
2026-04-24 20:13 6.08559 -77.96311 36890 ft 410 kts 150°
2026-04-24 20:14 6.03624 -77.93433 36887 ft 410 kts 150°
2026-04-24 20:14 5.98689 -77.90552 36890 ft 410 kts 150°
2026-04-24 20:15 5.93760 -77.87667 36889 ft 410 kts 150°
2026-04-24 20:15 5.88833 -77.84789 36886 ft 410 kts 150°
2026-04-24 20:16 5.83904 -77.81917 36886 ft 409 kts 150°
2026-04-24 20:16 5.78979 -77.79042 36885 ft 410 kts 150°
2026-04-24 20:17 5.74055 -77.76162 36889 ft 409 kts 150°
2026-04-24 20:17 5.66667 -77.71853 36888 ft 409 kts 150°
2026-04-24 20:18 5.61741 -77.68982 36889 ft 410 kts 150°
2026-04-24 20:18 5.56814 -77.66105 36891 ft 410 kts 150°
2026-04-24 20:19 5.51885 -77.63232 36884 ft 410 kts 150°
2026-04-24 20:19 5.46957 -77.60355 36892 ft 410 kts 150°
2026-04-24 20:20 5.42023 -77.57485 36888 ft 410 kts 150°
2026-04-24 20:20 5.37094 -77.54619 36893 ft 409 kts 150°
2026-04-24 20:21 5.32168 -77.51749 36888 ft 409 kts 149°
2026-04-24 20:21 5.27243 -77.48882 36889 ft 409 kts 150°
2026-04-24 20:22 5.22322 -77.46018 36887 ft 409 kts 149°
2026-04-24 20:22 5.17402 -77.43148 36887 ft 409 kts 149°
2026-04-24 20:23 5.12475 -77.40279 36881 ft 409 kts 149°
2026-04-24 20:23 5.07545 -77.37416 36877 ft 410 kts 149°
2026-04-24 20:24 5.02610 -77.34545 36878 ft 410 kts 149°
2026-04-24 20:24 4.97711 -77.31696 36875 ft 410 kts 149°
2026-04-24 20:25 4.92785 -77.28832 36872 ft 409 kts 149°
2026-04-24 20:25 4.87857 -77.25968 36873 ft 409 kts 149°
2026-04-24 20:26 4.82937 -77.23100 36879 ft 409 kts 149°
2026-04-24 20:26 4.78010 -77.20232 36882 ft 410 kts 149°
2026-04-24 20:27 4.73082 -77.17363 36884 ft 409 kts 149°
2026-04-24 20:27 4.70615 -77.15930 36774 ft 411 kts 149°
2026-04-24 20:27 4.68146 -77.14498 36521 ft 409 kts 149°
2026-04-24 20:28 4.65687 -77.13070 36272 ft 409 kts 149°
2026-04-24 20:28 4.63224 -77.11640 36023 ft 409 kts 149°
2026-04-24 20:28 4.60764 -77.10212 35708 ft 407 kts 149°
2026-04-24 20:28 4.58330 -77.08797 35211 ft 403 kts 149°
2026-04-24 20:29 4.56695 -77.07846 34885 ft 401 kts 149°
2026-04-24 20:29 4.53513 -77.05995 34223 ft 397 kts 148°
2026-04-24 20:29 4.51135 -77.04613 33739 ft 394 kts 149°
2026-04-24 20:29 4.48768 -77.03241 33259 ft 391 kts 148°
2026-04-24 20:30 4.46417 -77.01881 32778 ft 389 kts 149°
2026-04-24 20:30 4.44085 -77.00529 32302 ft 386 kts 149°
2026-04-24 20:30 4.41769 -76.99185 31822 ft 383 kts 149°
2026-04-24 20:30 4.39468 -76.97852 31362 ft 380 kts 149°
2026-04-24 20:31 4.37187 -76.96528 30902 ft 378 kts 149°
2026-04-24 20:31 4.34925 -76.95212 30460 ft 375 kts 149°
2026-04-24 20:31 4.32677 -76.93905 30028 ft 372 kts 149°
2026-04-24 20:31 4.30449 -76.92610 29591 ft 369 kts 149°
2026-04-24 20:32 4.28239 -76.91325 29173 ft 366 kts 149°
2026-04-24 20:32 4.26047 -76.90053 28756 ft 363 kts 149°
2026-04-24 20:32 4.23842 -76.88846 28333 ft 361 kts 155°
2026-04-24 20:32 4.21520 -76.87904 27923 ft 359 kts 158°
2026-04-24 20:33 4.19208 -76.86984 27480 ft 357 kts 157°
2026-04-24 20:33 4.16909 -76.86066 27046 ft 355 kts 157°
2026-04-24 20:33 4.15361 -76.85447 26754 ft 354 kts 158°
2026-04-24 20:33 4.12344 -76.84241 26165 ft 352 kts 158°
2026-04-24 20:34 4.10841 -76.83641 25877 ft 351 kts 158°
2026-04-24 20:34 4.08579 -76.82739 25423 ft 350 kts 158°
2026-04-24 20:34 4.06320 -76.81838 24969 ft 349 kts 158°
2026-04-24 20:34 4.04069 -76.80940 24507 ft 348 kts 158°
2026-04-24 20:35 4.01823 -76.80044 24034 ft 347 kts 158°
2026-04-24 20:35 3.99582 -76.79145 23568 ft 347 kts 158°
2026-04-24 20:35 3.97345 -76.78249 23103 ft 347 kts 158°
2026-04-24 20:35 3.95106 -76.77353 22643 ft 346 kts 158°
2026-04-24 20:36 3.92871 -76.76461 22190 ft 345 kts 158°
2026-04-24 20:36 3.90641 -76.75575 21750 ft 345 kts 158°
2026-04-24 20:36 3.88412 -76.74687 21311 ft 344 kts 158°
2026-04-24 20:36 3.86186 -76.73798 20871 ft 344 kts 158°
2026-04-24 20:37 3.83961 -76.72907 20438 ft 344 kts 158°
2026-04-24 20:37 3.81740 -76.72021 20004 ft 343 kts 158°
2026-04-24 20:37 3.79524 -76.71140 19586 ft 342 kts 159°
2026-04-24 20:37 3.77314 -76.70260 19168 ft 342 kts 159°
2026-04-24 20:38 3.75107 -76.69381 18746 ft 341 kts 159°
2026-04-24 20:38 3.72908 -76.68502 18314 ft 340 kts 159°
2026-04-24 20:38 3.70710 -76.67624 17895 ft 339 kts 159°
2026-04-24 20:38 3.68525 -76.66747 17494 ft 338 kts 159°
2026-04-24 20:39 3.66401 -76.65896 17102 ft 338 kts 159°
2026-04-24 20:39 3.64222 -76.65025 16687 ft 337 kts 159°
2026-04-24 20:39 3.62041 -76.64157 16285 ft 337 kts 159°
2026-04-24 20:39 3.59868 -76.63292 15889 ft 336 kts 159°
2026-04-24 20:40 3.57698 -76.62429 15493 ft 335 kts 159°
2026-04-24 20:40 3.55531 -76.61566 15085 ft 335 kts 159°
2026-04-24 20:40 3.53376 -76.60707 14690 ft 335 kts 159°
2026-04-24 20:40 3.51185 -76.59907 14292 ft 333 kts 166°
2026-04-24 20:41 3.48914 -76.59505 13897 ft 331 kts 172°
2026-04-24 20:41 3.46634 -76.59179 13478 ft 331 kts 172°
2026-04-24 20:41 3.44383 -76.58858 13065 ft 320 kts 172°
2026-04-24 20:41 3.42218 -76.58549 12671 ft 309 kts 172°
2026-04-24 20:42 3.40116 -76.58247 12290 ft 304 kts 172°
2026-04-24 20:42 3.38024 -76.57944 11913 ft 303 kts 172°
2026-04-24 20:42 3.35973 -76.57647 11824 ft 293 kts 172°
2026-04-24 20:42 3.33985 -76.57361 11700 ft 284 kts 172°
2026-04-24 20:43 3.32061 -76.57083 11586 ft 275 kts 172°
2026-04-24 20:43 3.30193 -76.56812 11460 ft 267 kts 172°
2026-04-24 20:43 3.28413 -76.56412 11335 ft 259 kts 154°
2026-04-24 20:43 3.27102 -76.55266 11217 ft 251 kts 121°
2026-04-24 20:44 3.26625 -76.53599 10789 ft 254 kts 90°
2026-04-24 20:44 3.26625 -76.51820 10382 ft 257 kts 89°
2026-04-24 20:44 3.26636 -76.50048 9988 ft 252 kts 88°
2026-04-24 20:44 3.26646 -76.48309 9607 ft 248 kts 88°
2026-04-24 20:45 3.26685 -76.46604 9238 ft 242 kts 81°
2026-04-24 20:45 3.27138 -76.45008 8803 ft 239 kts 62°
2026-04-24 20:45 3.28092 -76.43637 8169 ft 243 kts 43°
2026-04-24 20:45 3.29462 -76.42676 7796 ft 241 kts 24°
2026-04-24 20:46 3.31056 -76.42201 7472 ft 238 kts
2026-04-24 20:46 3.32655 -76.41928 7154 ft 229 kts 10°
2026-04-24 20:46 3.34205 -76.41659 6849 ft 223 kts
2026-04-24 20:46 3.35709 -76.41399 6576 ft 216 kts 10°
2026-04-24 20:47 3.37178 -76.41144 6312 ft 211 kts
2026-04-24 20:47 3.38610 -76.40897 6023 ft 206 kts
2026-04-24 20:47 3.40007 -76.40654 5732 ft 201 kts 11°
2026-04-24 20:47 3.41337 -76.40423 5486 ft 184 kts 11°
2026-04-24 20:48 3.42533 -76.40215 5239 ft 167 kts 11°
2026-04-24 20:48 3.43642 -76.40024 5016 ft 157 kts 11°
2026-04-24 20:48 3.44696 -76.39840 4823 ft 149 kts
2026-04-24 20:48 3.45701 -76.39664 4624 ft 145 kts
2026-04-24 20:49 3.46683 -76.39494 4438 ft 141 kts
2026-04-24 20:49 3.47648 -76.39325 4246 ft 140 kts
2026-04-24 20:49 3.48611 -76.39159 4076 ft 141 kts
2026-04-24 20:49 3.49575 -76.38991 3876 ft 141 kts
2026-04-24 20:50 3.50540 -76.38824 3688 ft 145 kts
2026-04-24 20:50 3.51551 -76.38647 3485 ft 145 kts
2026-04-24 20:50 3.52525 -76.38478 3269 ft 139 kts
2026-04-24 20:50 3.53481 -76.38318 3164 ft 132 kts
2026-04-24 20:51 3.54151 -76.38201 3168 ft 55 kts 11°
2026-04-24 20:51 3.54474 -76.38142 3165 ft 40 kts
2026-04-24 20:51 3.54599 -76.38166 3165 ft 9 kts 286°
2026-04-24 20:51 3.54615 -76.38227 3166 ft 9 kts 279°
2026-04-24 20:52 3.54561 -76.38289 3167 ft 17 kts 194°
2026-04-24 20:52 3.54435 -76.38313 3165 ft 20 kts 188°
2026-04-24 20:52 3.54293 -76.38337 3165 ft 22 kts 190°
2026-04-24 20:52 3.54135 -76.38364 3164 ft 24 kts 192°
2026-04-24 20:53 3.53990 -76.38456 3163 ft 26 kts 219°
2026-04-24 20:53 3.53850 -76.38577 3164 ft 28 kts 221°
2026-04-24 20:53 3.53736 -76.38635 3162 ft 12 kts 189°
2026-04-24 20:53 3.53726 -76.38637 3162 ft 0 kts 189°